Time,TemperatureF,DewpointF,PressureIn,WindDirection,WindDirectionDegrees,WindSpeedMPH,WindSpeedGustMPH,Humidity,HourlyPrecipIn,Conditions,Clouds,dailyrainin,SoftwareType,DateUTC
2013-01-09 00:00:00,67.4,66.5,30.21,North,355,0.0,0.0,97,0.00,,,0.00,Wunderground v.1.15,2013-01-09 05:00:00,
2013-01-09 00:05:00,67.5,66.6,30.21,North,355,0.0,0.0,97,0.00,,,0.00,Wunderground v.1.15,2013-01-09 05:05:00,
2013-01-09 00:10:00,67.5,66.6,30.22,East,81,0.0,0.0,97,0.00,,,0.00,Wunderground v.1.15,2013-01-09 05:10:00,
2013-01-09 00:15:00,67.5,66.6,30.22,NE,51,0.0,0.0,97,0.00,,,0.00,Wunderground v.1.15,2013-01-09 05:15:00,
2013-01-09 00:25:00,67.5,66.6,30.22,NNE,32,0.0,2.0,97,0.00,,,0.00,Wunderground v.1.15,2013-01-09 05:25:00,
2013-01-09 00:30:00,67.5,66.6,30.22,NNE,33,1.0,1.0,97,0.00,,,0.00,Wunderground v.1.15,2013-01-09 05:30:00,
2013-01-09 00:40:00,67.4,66.5,30.22,North,355,0.0,0.0,97,0.00,,,0.00,Wunderground v.1.15,2013-01-09 05:40:00,
2013-01-09 00:45:00,67.4,66.5,30.22,NE,44,0.0,0.0,97,0.00,,,0.00,Wunderground v.1.15,2013-01-09 05:45:00,
2013-01-09 00:50:00,67.4,66.5,30.21,NE,43,0.0,0.0,97,0.00,,,0.00,Wunderground v.1.15,2013-01-09 05:50:00,
2013-01-09 00:55:00,67.4,66.5,30.21,NE,40,0.0,0.0,97,0.00,,,0.00,Wunderground v.1.15,2013-01-09 05:55:00,
2013-01-09 01:05:00,67.3,66.4,30.21,East,88,0.0,0.0,97,0.00,,,0.00,Wunderground v.1.15,2013-01-09 06:05:00,
2013-01-09 01:15:00,67.3,66.7,30.21,NE,48,0.0,1.0,98,0.00,,,0.00,Wunderground v.1.15,2013-01-09 06:15:00,
2013-01-09 01:25:00,67.3,66.7,30.21,North,360,0.0,0.0,98,0.00,,,0.00,Wunderground v.1.15,2013-01-09 06:25:00,
2013-01-09 01:30:00,67.4,66.8,30.21,North,360,0.0,0.0,98,0.00,,,0.00,Wunderground v.1.15,2013-01-09 06:30:00,
2013-01-09 01:40:00,67.4,66.8,30.21,North,360,0.0,0.0,98,0.00,,,0.00,Wunderground v.1.15,2013-01-09 06:40:00,
2013-01-09 01:45:00,67.3,66.7,30.21,North,360,0.0,0.0,98,0.00,,,0.00,Wunderground v.1.15,2013-01-09 06:45:00,
2013-01-09 01:55:00,67.3,66.7,30.21,North,360,0.0,0.0,98,0.00,,,0.00,Wunderground v.1.15,2013-01-09 06:55:00,
2013-01-09 02:00:00,67.3,66.7,30.21,North,360,0.0,0.0,98,0.00,,,0.00,Wunderground v.1.15,2013-01-09 07:00:00,
2013-01-09 02:05:00,67.3,66.7,30.21,North,360,0.0,0.0,98,0.00,,,0.00,Wunderground v.1.15,2013-01-09 07:05:00,
2013-01-09 02:10:00,67.2,66.6,30.21,NNE,33,0.0,1.0,98,0.00,,,0.00,Wunderground v.1.15,2013-01-09 07:10:00,
2013-01-09 02:20:00,67.3,66.7,30.21,East,92,0.0,0.0,98,0.00,,,0.00,Wunderground v.1.15,2013-01-09 07:20:00,
2013-01-09 02:30:00,67.3,66.7,30.21,North,360,0.0,0.0,98,0.00,,,0.00,Wunderground v.1.15,2013-01-09 07:30:00,
2013-01-09 02:35:00,67.4,66.8,30.21,North,360,0.0,0.0,98,0.00,,,0.00,Wunderground v.1.15,2013-01-09 07:35:00,
2013-01-09 02:40:00,67.3,66.7,30.21,North,360,0.0,0.0,98,0.00,,,0.00,Wunderground v.1.15,2013-01-09 07:40:00,
2013-01-09 02:50:00,67.3,66.7,30.21,North,360,0.0,0.0,98,0.00,,,0.00,Wunderground v.1.15,2013-01-09 07:50:00,
2013-01-09 03:00:00,67.1,66.5,30.21,North,360,0.0,0.0,98,0.00,,,0.00,Wunderground v.1.15,2013-01-09 08:00:00,
2013-01-09 03:05:00,67.0,66.4,30.21,North,5,0.0,0.0,98,0.00,,,0.00,Wunderground v.1.15,2013-01-09 08:05:00,
2013-01-09 03:10:00,67.0,66.4,30.21,North,5,0.0,0.0,98,0.00,,,0.00,Wunderground v.1.15,2013-01-09 08:10:00,
2013-01-09 03:20:00,66.9,66.3,30.21,NNE,22,0.0,0.0,98,0.00,,,0.00,Wunderground v.1.15,2013-01-09 08:20:00,
2013-01-09 03:30:00,66.8,66.2,30.21,NNE,22,0.0,0.0,98,0.00,,,0.00,Wunderground v.1.15,2013-01-09 08:30:00,
2013-01-09 03:40:00,66.8,66.2,30.21,NNE,22,0.0,0.0,98,0.00,,,0.00,Wunderground v.1.15,2013-01-09 08:40:00,
2013-01-09 03:45:00,66.8,66.2,30.21,NNE,22,0.0,0.0,98,0.00,,,0.00,Wunderground v.1.15,2013-01-09 08:45:00,
2013-01-09 03:55:00,66.7,66.1,30.21,NNE,22,0.0,0.0,98,0.00,,,0.00,Wunderground v.1.15,2013-01-09 08:55:00,
2013-01-09 04:00:00,66.7,66.1,30.21,NNE,22,0.0,0.0,98,0.00,,,0.00,Wunderground v.1.15,2013-01-09 09:00:00,
2013-01-09 04:10:00,66.6,66.0,30.21,NNE,22,0.0,0.0,98,0.00,,,0.00,Wunderground v.1.15,2013-01-09 09:10:00,
2013-01-09 04:15:00,66.6,66.0,30.21,NNE,22,0.0,0.0,98,0.00,,,0.00,Wunderground v.1.15,2013-01-09 09:15:00,
2013-01-09 04:25:00,66.6,66.0,30.20,NNE,22,0.0,0.0,98,0.00,,,0.00,Wunderground v.1.15,2013-01-09 09:25:00,
2013-01-09 04:30:00,66.6,66.0,30.20,NNE,22,0.0,0.0,98,0.00,,,0.00,Wunderground v.1.15,2013-01-09 09:30:00,
2013-01-09 04:40:00,66.7,66.1,30.20,NNW,327,0.0,0.0,98,0.00,,,0.00,Wunderground v.1.15,2013-01-09 09:40:00,
2013-01-09 04:50:00,66.7,66.1,30.20,NNW,327,0.0,0.0,98,0.00,,,0.00,Wunderground v.1.15,2013-01-09 09:50:00,
2013-01-09 05:00:00,66.8,66.2,30.20,NNW,327,0.0,0.0,98,0.00,,,0.00,Wunderground v.1.15,2013-01-09 10:00:00,
2013-01-09 05:05:00,66.8,66.2,30.21,NNW,327,0.0,0.0,98,0.00,,,0.00,Wunderground v.1.15,2013-01-09 10:05:00,
2013-01-09 05:15:00,66.8,66.2,30.21,NNW,327,0.0,0.0,98,0.00,,,0.00,Wunderground v.1.15,2013-01-09 10:15:00,
2013-01-09 05:25:00,66.8,66.2,30.21,NNW,327,0.0,0.0,98,0.00,,,0.00,Wunderground v.1.15,2013-01-09 10:25:00,
2013-01-09 05:30:00,66.8,66.2,30.21,NNW,327,0.0,0.0,98,0.00,,,0.00,Wunderground v.1.15,2013-01-09 10:30:00,
2013-01-09 05:40:00,66.9,66.3,30.22,NNW,327,0.0,0.0,98,0.00,,,0.00,Wunderground v.1.15,2013-01-09 10:40:00,
2013-01-09 05:45:00,66.9,66.3,30.22,NNW,327,0.0,0.0,98,0.00,,,0.00,Wunderground v.1.15,2013-01-09 10:45:00,
2013-01-09 05:55:00,67.0,66.4,30.22,NNW,327,0.0,0.0,98,0.00,,,0.00,Wunderground v.1.15,2013-01-09 10:55:00,
2013-01-09 06:05:00,67.0,66.4,30.22,NE,52,0.0,0.0,98,0.00,,,0.00,Wunderground v.1.15,2013-01-09 11:05:00,
2013-01-09 06:15:00,67.1,66.5,30.22,NE,52,0.0,0.0,98,0.00,,,0.00,Wunderground v.1.15,2013-01-09 11:15:00,
2013-01-09 06:20:00,67.1,66.5,30.23,NW,321,0.0,0.0,98,0.00,,,0.00,Wunderground v.1.15,2013-01-09 11:20:00,
2013-01-09 06:30:00,67.2,66.6,30.22,NW,321,0.0,0.0,98,0.00,,,0.00,Wunderground v.1.15,2013-01-09 11:30:00,
2013-01-09 06:40:00,67.2,66.9,30.23,NW,321,0.0,0.0,99,0.00,,,0.00,Wunderground v.1.15,2013-01-09 11:40:00,
2013-01-09 06:45:00,67.3,67.0,30.23,NNE,15,0.0,0.0,99,0.00,,,0.00,Wunderground v.1.15,2013-01-09 11:45:00,
2013-01-09 06:55:00,67.3,67.0,30.23,NNE,15,0.0,0.0,99,0.00,,,0.00,Wunderground v.1.15,2013-01-09 11:55:00,
2013-01-09 07:00:00,67.3,67.0,30.23,NNE,15,0.0,0.0,99,0.00,,,0.00,Wunderground v.1.15,2013-01-09 12:00:00,
2013-01-09 07:10:00,67.5,67.2,30.23,ENE,74,1.0,1.0,99,0.00,,,0.00,Wunderground v.1.15,2013-01-09 12:10:00,
2013-01-09 07:15:00,67.5,67.2,30.23,NE,53,0.0,1.0,99,0.00,,,0.00,Wunderground v.1.15,2013-01-09 12:15:00,
2013-01-09 07:25:00,67.5,67.2,30.23,ESE,106,0.0,3.0,99,0.00,,,0.00,Wunderground v.1.15,2013-01-09 12:25:00,
2013-01-09 07:30:00,67.4,67.1,30.24,ESE,106,0.0,0.0,99,0.00,,,0.00,Wunderground v.1.15,2013-01-09 12:30:00,
2013-01-09 07:35:00,67.4,67.1,30.24,East,90,0.0,0.0,99,0.00,,,0.00,Wunderground v.1.15,2013-01-09 12:35:00,
2013-01-09 07:45:00,67.4,67.1,30.24,East,79,0.0,0.0,99,0.00,,,0.00,Wunderground v.1.15,2013-01-09 12:45:00,
2013-01-09 07:50:00,67.4,67.1,30.24,SE,144,0.0,0.0,99,0.00,,,0.00,Wunderground v.1.15,2013-01-09 12:50:00,
2013-01-09 08:00:00,67.6,67.3,30.25,SE,144,0.0,0.0,99,0.00,,,0.00,Wunderground v.1.15,2013-01-09 13:00:00,
2013-01-09 08:10:00,67.6,67.3,30.25,NNE,23,0.0,0.0,99,0.00,,,0.00,Wunderground v.1.15,2013-01-09 13:10:00,
2013-01-09 08:15:00,67.7,67.4,30.26,ENE,62,0.0,0.0,99,0.00,,,0.00,Wunderground v.1.15,2013-01-09 13:15:00,
2013-01-09 08:25:00,67.8,67.5,30.26,ENE,62,0.0,0.0,99,0.00,,,0.00,Wunderground v.1.15,2013-01-09 13:25:00,
2013-01-09 08:30:00,67.8,67.5,30.27,ENE,62,0.0,0.0,99,0.00,,,0.00,Wunderground v.1.15,2013-01-09 13:30:00,
2013-01-09 08:40:00,68.0,67.7,30.27,ESE,118,1.0,1.0,99,0.00,,,0.00,Wunderground v.1.15,2013-01-09 13:40:00,
2013-01-09 08:50:00,68.2,67.9,30.27,North,360,0.0,2.0,99,0.00,,,0.00,Wunderground v.1.15,2013-01-09 13:50:00,
2013-01-09 09:00:00,68.4,68.1,30.28,ESE,104,0.0,0.0,99,0.00,,,0.00,Wunderground v.1.15,2013-01-09 14:00:00,
2013-01-09 09:05:00,68.5,68.2,30.28,SE,130,0.0,0.0,99,0.00,,,0.00,Wunderground v.1.15,2013-01-09 14:05:00,
2013-01-09 09:15:00,68.8,68.5,30.28,NE,38,0.0,0.0,99,0.00,,,0.00,Wunderground v.1.15,2013-01-09 14:15:00,
2013-01-09 09:25:00,69.1,68.5,30.28,ESE,117,0.0,1.0,98,0.00,,,0.00,Wunderground v.1.15,2013-01-09 14:25:00,
2013-01-09 09:30:00,69.3,69.0,30.28,ENE,63,0.0,0.0,99,0.00,,,0.00,Wunderground v.1.15,2013-01-09 14:30:00,
2013-01-09 09:40:00,69.7,69.1,30.29,East,86,1.0,1.0,98,0.00,,,0.00,Wunderground v.1.15,2013-01-09 14:40:00,
2013-01-09 09:45:00,69.8,68.9,30.29,ENE,78,1.0,1.0,97,0.00,,,0.00,Wunderground v.1.15,2013-01-09 14:45:00,
2013-01-09 09:55:00,70.3,69.1,30.29,NNE,26,1.0,1.0,96,0.00,,,0.00,Wunderground v.1.15,2013-01-09 14:55:00,
2013-01-09 10:05:00,70.6,69.1,30.29,SSE,149,0.0,2.0,95,0.00,,,0.00,Wunderground v.1.15,2013-01-09 15:05:00,
2013-01-09 10:10:00,70.9,69.4,30.29,ENE,57,1.0,5.0,95,0.00,,,0.00,Wunderground v.1.15,2013-01-09 15:10:00,
2013-01-09 10:15:00,71.3,69.8,30.29,SE,146,2.0,5.0,95,0.00,,,0.00,Wunderground v.1.15,2013-01-09 15:15:00,
2013-01-09 10:20:00,72.3,70.2,30.29,ENE,71,1.0,3.0,93,0.00,,,0.00,Wunderground v.1.15,2013-01-09 15:20:00,
2013-01-09 10:30:00,73.5,70.4,30.29,ESE,111,2.0,2.0,90,0.00,,,0.00,Wunderground v.1.15,2013-01-09 15:30:00,
2013-01-09 10:40:00,74.2,70.1,30.29,SE,143,1.0,1.0,87,0.00,,,0.00,Wunderground v.1.15,2013-01-09 15:40:00,
2013-01-09 10:45:00,74.7,69.9,30.29,South,171,1.0,1.0,85,0.00,,,0.00,Wunderground v.1.15,2013-01-09 15:45:00,
2013-01-09 10:55:00,75.7,70.5,30.29,SE,140,2.0,4.0,84,0.00,,,0.00,Wunderground v.1.15,2013-01-09 15:55:00,
2013-01-09 11:05:00,76.6,70.7,30.29,ESE,104,1.0,2.0,82,0.00,,,0.00,Wunderground v.1.15,2013-01-09 16:05:00,
2013-01-09 11:10:00,76.6,70.3,30.29,ESE,102,1.0,1.0,81,0.00,,,0.00,Wunderground v.1.15,2013-01-09 16:10:00,
2013-01-09 11:15:00,76.6,70.7,30.29,South,186,1.0,3.0,82,0.00,,,0.00,Wunderground v.1.15,2013-01-09 16:15:00,
2013-01-09 11:25:00,76.6,70.7,30.28,SE,140,2.0,2.0,82,0.00,,,0.00,Wunderground v.1.15,2013-01-09 16:25:00,
2013-01-09 11:35:00,77.2,70.9,30.28,ESE,105,2.0,6.0,81,0.00,,,0.00,Wunderground v.1.15,2013-01-09 16:35:00,
2013-01-09 11:45:00,77.2,70.5,30.28,South,179,3.0,5.0,80,0.00,,,0.00,Wunderground v.1.15,2013-01-09 16:45:00,
2013-01-09 11:50:00,77.3,71.0,30.27,East,84,3.0,3.0,81,0.00,,,0.00,Wunderground v.1.15,2013-01-09 16:50:00,
2013-01-09 12:00:00,77.3,71.0,30.27,NE,40,3.0,3.0,81,0.00,,,0.00,Wunderground v.1.15,2013-01-09 17:00:00,
2013-01-09 12:05:00,77.6,71.3,30.27,South,181,2.0,3.0,81,0.00,,,0.00,Wunderground v.1.15,2013-01-09 17:05:00,
2013-01-09 12:15:00,78.0,71.3,30.26,South,178,2.0,2.0,80,0.00,,,0.00,Wunderground v.1.15,2013-01-09 17:15:00,
2013-01-09 12:25:00,78.2,71.2,30.26,ENE,69,2.0,3.0,79,0.00,,,0.00,Wunderground v.1.15,2013-01-09 17:25:00,
2013-01-09 12:35:00,78.6,71.2,30.26,SE,134,2.0,2.0,78,0.00,,,0.00,Wunderground v.1.15,2013-01-09 17:35:00,
2013-01-09 12:40:00,78.6,70.8,30.25,ENE,76,3.0,4.0,77,0.00,,,0.00,Wunderground v.1.15,2013-01-09 17:40:00,
2013-01-09 12:50:00,78.4,71.0,30.25,East,94,3.0,3.0,78,0.00,,,0.00,Wunderground v.1.15,2013-01-09 17:50:00,
2013-01-09 12:55:00,78.4,71.3,30.25,SSE,150,2.0,3.0,79,0.00,,,0.00,Wunderground v.1.15,2013-01-09 17:55:00,
2013-01-09 13:05:00,78.6,70.8,30.24,East,98,2.0,6.0,77,0.00,,,0.00,Wunderground v.1.15,2013-01-09 18:05:00,
2013-01-09 13:15:00,79.5,70.9,30.24,WNW,292,3.0,3.0,75,0.00,,,0.00,Wunderground v.1.15,2013-01-09 18:15:00,
2013-01-09 13:20:00,80.0,70.6,30.24,ESE,117,3.0,4.0,73,0.00,,,0.00,Wunderground v.1.15,2013-01-09 18:20:00,
2013-01-09 13:30:00,80.6,70.3,30.24,East,80,3.0,3.0,71,0.00,,,0.00,Wunderground v.1.15,2013-01-09 18:30:00,
2013-01-09 13:40:00,80.0,70.2,30.24,NE,48,2.0,2.0,72,0.00,,,0.00,Wunderground v.1.15,2013-01-09 18:40:00,
2013-01-09 13:45:00,79.5,69.7,30.24,ESE,119,1.0,2.0,72,0.00,,,0.00,Wunderground v.1.15,2013-01-09 18:45:00,
2013-01-09 13:50:00,79.1,69.3,30.23,SW,222,1.0,1.0,72,0.00,,,0.00,Wunderground v.1.15,2013-01-09 18:50:00,
2013-01-09 13:55:00,78.8,69.0,30.23,SE,142,1.0,1.0,72,0.00,,,0.00,Wunderground v.1.15,2013-01-09 18:55:00,
2013-01-09 14:00:00,78.6,68.8,30.23,SSE,149,1.0,1.0,72,0.00,,,0.00,Wunderground v.1.15,2013-01-09 19:00:00,
2013-01-09 14:10:00,78.3,69.3,30.23,SSW,194,2.0,3.0,74,0.00,,,0.00,Wunderground v.1.15,2013-01-09 19:10:00,
2013-01-09 14:15:00,78.4,69.0,30.23,NE,46,2.0,3.0,73,0.00,,,0.00,Wunderground v.1.15,2013-01-09 19:15:00,
2013-01-09 14:20:00,78.4,69.0,30.23,East,82,2.0,2.0,73,0.00,,,0.00,Wunderground v.1.15,2013-01-09 19:20:00,
2013-01-09 14:25:00,78.6,69.6,30.23,South,177,1.0,2.0,74,0.00,,,0.00,Wunderground v.1.15,2013-01-09 19:25:00,
2013-01-09 14:35:00,79.2,69.8,30.23,SSE,163,1.0,4.0,73,0.00,,,0.00,Wunderground v.1.15,2013-01-09 19:35:00,
2013-01-09 14:45:00,79.5,68.9,30.23,SE,142,1.0,1.0,70,0.00,,,0.00,Wunderground v.1.15,2013-01-09 19:45:00,
2013-01-09 14:55:00,79.7,69.5,30.22,ESE,112,1.0,2.0,71,0.00,,,0.00,Wunderground v.1.15,2013-01-09 19:55:00,
2013-01-09 15:00:00,79.7,69.5,30.23,ESE,103,1.0,3.0,71,0.00,,,0.00,Wunderground v.1.15,2013-01-09 20:00:00,
2013-01-09 15:10:00,79.7,69.5,30.23,East,92,1.0,1.0,71,0.00,,,0.00,Wunderground v.1.15,2013-01-09 20:10:00,
2013-01-09 15:15:00,79.6,69.8,30.23,SSE,156,1.0,2.0,72,0.00,,,0.00,Wunderground v.1.15,2013-01-09 20:15:00,
2013-01-09 15:20:00,79.6,69.8,30.23,NNW,344,1.0,1.0,72,0.00,,,0.00,Wunderground v.1.15,2013-01-09 20:20:00,
2013-01-09 15:30:00,79.4,69.2,30.23,SE,126,1.0,1.0,71,0.00,,,0.00,Wunderground v.1.15,2013-01-09 20:30:00,
2013-01-09 15:40:00,79.3,69.1,30.23,East,84,1.0,1.0,71,0.00,,,0.00,Wunderground v.1.15,2013-01-09 20:40:00,
2013-01-09 15:45:00,79.2,69.4,30.23,NE,34,1.0,2.0,72,0.00,,,0.00,Wunderground v.1.15,2013-01-09 20:45:00,
2013-01-09 15:55:00,79.4,70.4,30.23,North,355,1.0,1.0,74,0.00,,,0.00,Wunderground v.1.15,2013-01-09 20:55:00,
2013-01-09 16:00:00,79.5,70.1,30.23,East,80,1.0,3.0,73,0.00,,,0.00,Wunderground v.1.15,2013-01-09 21:00:00,
2013-01-09 16:10:00,79.4,70.4,30.23,ESE,109,1.0,1.0,74,0.00,,,0.00,Wunderground v.1.15,2013-01-09 21:10:00,
2013-01-09 16:15:00,79.3,69.9,30.23,NNW,342,2.0,3.0,73,0.00,,,0.00,Wunderground v.1.15,2013-01-09 21:15:00,
2013-01-09 16:20:00,79.1,70.1,30.23,East,84,1.0,1.0,74,0.00,,,0.00,Wunderground v.1.15,2013-01-09 21:20:00,
2013-01-09 16:30:00,79.0,70.0,30.23,NE,39,0.0,0.0,74,0.00,,,0.00,Wunderground v.1.15,2013-01-09 21:30:00,
2013-01-09 16:35:00,78.9,70.3,30.23,NE,47,1.0,1.0,75,0.00,,,0.00,Wunderground v.1.15,2013-01-09 21:35:00,
2013-01-09 16:45:00,78.7,70.1,30.23,ESE,104,1.0,1.0,75,0.00,,,0.00,Wunderground v.1.15,2013-01-09 21:45:00,
2013-01-09 16:55:00,78.5,70.3,30.23,NE,52,1.0,3.0,76,0.00,,,0.00,Wunderground v.1.15,2013-01-09 21:55:00,
2013-01-09 17:00:00,78.3,70.1,30.23,NE,51,0.0,0.0,76,0.00,,,0.00,Wunderground v.1.15,2013-01-09 22:00:00,
2013-01-09 17:10:00,78.1,70.3,30.23,NE,51,0.0,0.0,77,0.00,,,0.00,Wunderground v.1.15,2013-01-09 22:10:00,
2013-01-09 17:15:00,77.9,70.5,30.23,ENE,78,0.0,0.0,78,0.00,,,0.00,Wunderground v.1.15,2013-01-09 22:15:00,
2013-01-09 17:25:00,77.5,70.1,30.24,NNE,28,1.0,1.0,78,0.00,,,0.00,Wunderground v.1.15,2013-01-09 22:25:00,
2013-01-09 17:35:00,77.1,70.1,30.24,SE,132,0.0,1.0,79,0.00,,,0.00,Wunderground v.1.15,2013-01-09 22:35:00,
2013-01-09 17:45:00,76.6,70.3,30.24,East,91,0.0,0.0,81,0.00,,,0.00,Wunderground v.1.15,2013-01-09 22:45:00,
2013-01-09 17:50:00,76.4,70.1,30.24,ENE,61,0.0,0.0,81,0.00,,,0.00,Wunderground v.1.15,2013-01-09 22:50:00,
2013-01-09 18:00:00,75.9,69.6,30.24,North,5,0.0,0.0,81,0.00,,,0.00,Wunderground v.1.15,2013-01-09 23:00:00,
2013-01-09 18:10:00,75.5,69.6,30.25,East,96,0.0,0.0,82,0.00,,,0.00,Wunderground v.1.15,2013-01-09 23:10:00,
2013-01-09 18:15:00,75.2,69.7,30.25,East,96,0.0,0.0,83,0.00,,,0.00,Wunderground v.1.15,2013-01-09 23:15:00,
2013-01-09 18:25:00,74.7,69.2,30.25,East,96,0.0,0.0,83,0.00,,,0.00,Wunderground v.1.15,2013-01-09 23:25:00,
2013-01-09 18:30:00,74.4,69.2,30.25,East,96,0.0,0.0,84,0.00,,,0.00,Wunderground v.1.15,2013-01-09 23:30:00,
2013-01-09 18:40:00,74.2,69.1,30.25,North,5,0.0,0.0,84,0.00,,,0.00,Wunderground v.1.15,2013-01-09 23:40:00,
2013-01-09 18:45:00,74.1,69.0,30.25,NNE,33,1.0,1.0,84,0.00,,,0.00,Wunderground v.1.15,2013-01-09 23:45:00,
2013-01-09 18:50:00,74.1,69.0,30.25,NE,40,1.0,1.0,84,0.00,,,0.00,Wunderground v.1.15,2013-01-09 23:50:00,
2013-01-09 19:00:00,74.0,69.2,30.26,NE,53,0.0,0.0,85,0.00,,,0.00,Wunderground v.1.15,2013-01-10 00:00:00,
2013-01-09 19:10:00,73.9,69.1,30.26,SE,139,0.0,1.0,85,0.00,,,0.00,Wunderground v.1.15,2013-01-10 00:10:00,
2013-01-09 19:15:00,73.7,68.9,30.26,NE,39,0.0,1.0,85,0.00,,,0.00,Wunderground v.1.15,2013-01-10 00:15:00,
2013-01-09 19:25:00,73.4,69.0,30.26,ENE,76,0.0,2.0,86,0.00,,,0.00,Wunderground v.1.15,2013-01-10 00:25:00,
2013-01-09 19:30:00,73.3,69.2,30.26,NE,41,1.0,2.0,87,0.00,,,0.00,Wunderground v.1.15,2013-01-10 00:30:00,
2013-01-09 19:35:00,73.1,69.0,30.26,NE,46,0.0,2.0,87,0.00,,,0.00,Wunderground v.1.15,2013-01-10 00:35:00,
2013-01-09 19:45:00,72.9,69.1,30.27,NNE,29,0.0,1.0,88,0.00,,,0.00,Wunderground v.1.15,2013-01-10 00:45:00,
2013-01-09 19:50:00,72.8,69.4,30.27,NE,55,0.0,0.0,89,0.00,,,0.00,Wunderground v.1.15,2013-01-10 00:50:00,
2013-01-09 20:00:00,72.6,69.2,30.27,ESE,118,1.0,1.0,89,0.00,,,0.00,Wunderground v.1.15,2013-01-10 01:00:00,
2013-01-09 20:10:00,72.5,69.1,30.28,East,95,1.0,1.0,89,0.00,,,0.00,Wunderground v.1.15,2013-01-10 01:10:00,
2013-01-09 20:15:00,72.4,69.0,30.28,ESE,115,0.0,2.0,89,0.00,,,0.00,Wunderground v.1.15,2013-01-10 01:15:00,
2013-01-09 20:25:00,72.2,69.1,30.28,NNE,32,0.0,0.0,90,0.00,,,0.00,Wunderground v.1.15,2013-01-10 01:25:00,
2013-01-09 20:30:00,72.1,69.0,30.28,NNW,338,0.0,4.0,90,0.00,,,0.00,Wunderground v.1.15,2013-01-10 01:30:00,
2013-01-09 20:40:00,71.9,68.8,30.28,ESE,104,1.0,1.0,90,0.00,,,0.00,Wunderground v.1.15,2013-01-10 01:40:00,
2013-01-09 20:50:00,71.7,68.6,30.28,SSE,159,1.0,1.0,90,0.00,,,0.00,Wunderground v.1.15,2013-01-10 01:50:00,
2013-01-09 21:00:00,71.5,68.4,30.28,ESE,119,1.0,1.0,90,0.00,,,0.00,Wunderground v.1.15,2013-01-10 02:00:00,
2013-01-09 21:05:00,71.4,68.6,30.29,East,86,1.0,1.0,91,0.00,,,0.00,Wunderground v.1.15,2013-01-10 02:05:00,
2013-01-09 21:15:00,71.2,68.4,30.29,SE,144,1.0,1.0,91,0.00,,,0.00,Wunderground v.1.15,2013-01-10 02:15:00,
2013-01-09 21:25:00,71.1,68.3,30.29,NNE,33,0.0,1.0,91,0.00,,,0.00,Wunderground v.1.15,2013-01-10 02:25:00,
2013-01-09 21:30:00,71.0,68.2,30.29,North,11,0.0,1.0,91,0.00,,,0.00,Wunderground v.1.15,2013-01-10 02:30:00,
2013-01-09 21:40:00,70.9,68.1,30.29,ENE,59,0.0,0.0,91,0.00,,,0.00,Wunderground v.1.15,2013-01-10 02:40:00,
2013-01-09 21:45:00,70.7,68.3,30.29,ENE,59,0.0,0.0,92,0.00,,,0.00,Wunderground v.1.15,2013-01-10 02:45:00,
2013-01-09 21:50:00,70.6,68.2,30.30,ENE,62,0.0,0.0,92,0.00,,,0.00,Wunderground v.1.15,2013-01-10 02:50:00,
2013-01-09 21:55:00,70.5,68.1,30.30,ENE,67,0.0,0.0,92,0.00,,,0.00,Wunderground v.1.15,2013-01-10 02:55:00,
2013-01-09 22:05:00,70.3,68.2,30.30,NNE,32,0.0,0.0,93,0.00,,,0.00,Wunderground v.1.15,2013-01-10 03:05:00,
2013-01-09 22:10:00,70.2,68.1,30.30,North,9,0.0,0.0,93,0.00,,,0.00,Wunderground v.1.15,2013-01-10 03:10:00,
2013-01-09 22:15:00,70.2,68.1,30.30,NE,56,0.0,0.0,93,0.00,,,0.00,Wunderground v.1.15,2013-01-10 03:15:00,
2013-01-09 22:25:00,70.1,68.0,30.30,NE,36,0.0,1.0,93,0.00,,,0.00,Wunderground v.1.15,2013-01-10 03:25:00,
2013-01-09 22:35:00,70.1,68.3,30.30,ENE,62,1.0,1.0,94,0.00,,,0.00,Wunderground v.1.15,2013-01-10 03:35:00,
2013-01-09 22:40:00,70.0,67.9,30.30,SE,127,1.0,2.0,93,0.00,,,0.00,Wunderground v.1.15,2013-01-10 03:40:00,
2013-01-09 22:45:00,70.0,68.2,30.30,NNE,25,1.0,2.0,94,0.00,,,0.00,Wunderground v.1.15,2013-01-10 03:45:00,
2013-01-09 22:55:00,69.9,68.1,30.30,ENE,73,1.0,1.0,94,0.00,,,0.00,Wunderground v.1.15,2013-01-10 03:55:00,
2013-01-09 23:00:00,69.8,68.0,30.30,ENE,65,0.0,0.0,94,0.00,,,0.00,Wunderground v.1.15,2013-01-10 04:00:00,
2013-01-09 23:10:00,69.7,67.9,30.30,East,79,0.0,1.0,94,0.00,,,0.00,Wunderground v.1.15,2013-01-10 04:10:00,
2013-01-09 23:15:00,69.6,67.8,30.31,East,79,0.0,1.0,94,0.00,,,0.00,Wunderground v.1.15,2013-01-10 04:15:00,
2013-01-09 23:25:00,69.4,67.9,30.31,East,84,0.0,0.0,95,0.00,,,0.00,Wunderground v.1.15,2013-01-10 04:25:00,
2013-01-09 23:30:00,69.3,67.8,30.31,East,86,0.0,0.0,95,0.00,,,0.00,Wunderground v.1.15,2013-01-10 04:30:00,
2013-01-09 23:40:00,69.2,67.7,30.31,ENE,62,0.0,0.0,95,0.00,,,0.00,Wunderground v.1.15,2013-01-10 04:40:00,
2013-01-09 23:50:00,69.1,67.9,30.31,ENE,62,0.0,0.0,96,0.00,,,0.00,Wunderground v.1.15,2013-01-10 04:50:00,
2013-01-09 23:55:00,69.0,67.8,30.31,East,87,0.0,0.0,96,0.00,,,0.00,Wunderground v.1.15,2013-01-10 04:55:00,